Regional Weather Roundup
Issued by NWS

Home | Current Version | Previous Version | Graphics & Text | Print | Product List | Glossary On
Versions: 1 2 3 4 5 6 7 8 9 10 11 12 13 14 15 16 17 18 19 20 21 22 23 24 25 26 27 28 29 30 31 32 33 34 35 36 37 38 39 40 41 42 43 44 45 46 47 48 49 50
000
ASUS43 KBIS 261101
RWRND

NORTH DAKOTA REGIONAL WEATHER ROUNDUP
NATIONAL WEATHER SERVICE BISMARCK ND
600 AM CDT SUN APR 26 2015

NOTE: "FAIR" INDICATES FEW OR NO CLOUDS BELOW 12,000 FEET WITH NO
SIGNIFICANT WEATHER AND/OR OBSTRUCTIONS TO VISIBILITY.


NDZ001>003-009>011-017-261200-
NORTHWEST NORTH DAKOTA

CITY           SKY/WX    TMP DP  RH WIND       PRES   REMARKS
WILLISTON      CLOUDY    38  36  92 NW9       29.99R
MINOT          LGT RAIN  46  44  93 SE8       29.95R FOG
MINOT AFB      LGT RAIN  46  46 100 S8        29.94R FOG
$$

NDZ018>021-031>035-040>046-261200-
SOUTHWEST NORTH DAKOTA

CITY           SKY/WX    TMP DP  RH WIND       PRES   REMARKS
BISMARCK       LGT RAIN  46  45  96 E5        29.99R FOG
DICKINSON      CLOUDY    43  40  89 CALM      29.94R
GARRISON         N/A     45  44  97 S8        29.96R
HETTINGER ARPT CLOUDY    43  40  89 N8        29.95S FOG
$$

NDZ004>008-012>016-024-026-027-054-261200-
NORTHEAST NORTH DAKOTA

CITY           SKY/WX    TMP DP  RH WIND       PRES   REMARKS
GRAND FORKS    PTCLDY    36  28  73 SE8       30.06R
GRND FRKS AFB  CLEAR     34  28  77 SE8       30.06R
DEVILS LAKE    CLOUDY    45  37  76 SE9       30.00S
$$

NDZ022-023-025-028>030-036>039-047>053-261200-
SOUTHEAST NORTH DAKOTA

CITY           SKY/WX    TMP DP  RH WIND       PRES   REMARKS
FARGO          PTCLDY    39  26  59 S6        30.07R
JAMESTOWN      MOCLDY    44  37  76 SE10      30.00S
$$




USA.gov is the U.S. government's official web portal to all federal, state and local government web resources and services.